|
NORAD ID: 38305 Int'l Code: 2010-009J
Perigee: 1,155.7 km
Apogee: 1,386.0 km
Inclination: 63.5 °
Period: 110.8 minutes
Semi major axis: 7641 km
Launch date: March 5, 2010
Source: People's Republic of China (PRC)
Note: This is SATELLITE DEBRIS
Two Line Element Set (TLE):
1 38305U 10009J 13117.23480613 -.00000047 00000-0 10000-3 0 648
2 38305 063.4945 349.7111 0150661 156.6199 205.8308 12.99585449148874
Source:
NASA's NSSDC Master Catalog entry for CZ-4C DEB
|